Location: Coopersdale
(40.3556°N, 78.9372°W)
Time: 13:51:06
(UTC+00:00)

Vanguard 3 - Visible Passes

Search period start: 25 January 2021 00:00
Search period end: 04 February 2021 00:00
Orbit: 508 x 3261 km, 33.3° (Epoch: 24 January)

Date Brightness Start Highest point End Pass type
(mag) Time Alt. Az. Time Alt. Az. Time Alt. Az.
25 Jan 8.6 09:18:57 50° SSE 09:18:57 50° SSE 09:29:32 10° E visible
25 Jan 9.3 11:23:31 13° W 11:31:28 57° S 11:46:24 10° ESE visible
26 Jan 9.9 08:09:05 21° ESE 08:09:05 21° ESE 08:12:38 10° E visible
26 Jan 8.5 10:13:38 39° SW 10:16:35 57° S 10:29:04 10° ESE visible
27 Jan 8.8 09:03:46 44° SE 09:03:46 44° SE 09:12:01 10° E visible
27 Jan 9.2 11:08:19 17° WSW 11:14:43 53° S 11:28:22 10° ESE visible
28 Jan 10.2 07:53:52 15° E 07:53:52 15° E 07:55:27 10° E visible
28 Jan 8.3 09:58:25 47° SW 10:00:01 54° S 10:11:20 10° ESE visible
29 Jan 9.1 08:48:33 34° ESE 08:48:33 34° ESE 08:54:36 10° E visible
29 Jan 9.0 10:53:06 22° WSW 10:58:04 47° S 11:10:22 10° ESE visible
30 Jan 8.3 09:43:14 49° S 09:43:34 49° S 09:53:40 10° ESE visible
30 Jan 9.7 11:48:42 10° W 11:56:17 36° SSW 12:08:38 10° SE visible
31 Jan 9.5 08:33:21 25° ESE 08:33:21 25° ESE 08:37:18 10° ESE visible
31 Jan 8.8 10:37:55 26° WSW 10:41:31 41° S 10:52:23 10° SE visible
01 Feb 8.5 09:28:04 42° SSE 09:28:04 42° SSE 09:36:05 10° ESE visible
01 Feb 9.6 11:32:57 10° WSW 11:39:39 30° SSW 11:50:12 10° SE visible
02 Feb 9.9 08:18:13 17° ESE 08:18:13 17° ESE 08:20:06 10° ESE visible
02 Feb 8.7 10:22:47 29° SW 10:25:03 35° SSW 10:34:26 10° SE visible
03 Feb 9.0 09:12:57 31° SSE 09:12:57 31° SSE 09:18:35 10° ESE visible
03 Feb 9.5 11:17:31 11° WSW 11:23:08 24° SSW 11:31:41 10° SSE visible
